Estación de Illapel

Ultimos registro cada 15 minutos 39
Estación Fecha / Hora Temperatura Humedad Lluvia Velocidad Dirección Radiación Presion
39 Illapel 05-05-2026 09:45 14,4 46 0 0,4 109 227 1008,3
38 Illapel 05-05-2026 09:30 13,1 50 0 0,4 119 195 1008,3
37 Illapel 05-05-2026 09:15 11,8 52 0 0 124 172 1008,3
36 Illapel 05-05-2026 09:00 11,2 53 0 0 124 79 1008,3
35 Illapel 05-05-2026 08:45 9,9 57 0 0 135 174 1008,3
34 Illapel 05-05-2026 08:30 8,7 59 0 0 145 51 1008,3
33 Illapel 05-05-2026 08:15 8,4 60 0 0 144 25 1008,3
32 Illapel 05-05-2026 08:00 8,1 61 0 0 144 21 1008,3
31 Illapel 05-05-2026 07:45 7,8 61 0 0,9 146 9 1008,3
30 Illapel 05-05-2026 07:30 7,6 62 0 0 200 0 1008,3
29 Illapel 05-05-2026 07:15 7,4 63 0 0 203 0 1008,3
28 Illapel 05-05-2026 07:00 7,2 63 0 0,4 204 0 1008,3
27 Illapel 05-05-2026 06:45 7,4 62 0 0 204 0 1008,3
26 Illapel 05-05-2026 06:30 7,6 63 0 0 204 0 1008,3
25 Illapel 05-05-2026 06:15 7,7 62 0 0 204 0 1008,3
24 Illapel 05-05-2026 06:00 7,8 63 0 0 204 0 1008,3
23 Illapel 05-05-2026 05:45 7,9 63 0 0 204 0 1008,3
22 Illapel 05-05-2026 05:30 7,7 63 0 0 204 0 1008,3
21 Illapel 05-05-2026 05:15 7,8 61 0 0 204 0 1008,3
20 Illapel 05-05-2026 05:00 8,3 62 0 0 204 0 1008,3
19 Illapel 05-05-2026 04:45 8,2 62 0 0 204 0 1008,3
18 Illapel 05-05-2026 04:30 8,5 61 0 0 204 0 1008,3
17 Illapel 05-05-2026 04:15 8,8 60 0 0 204 0 1008,3
16 Illapel 05-05-2026 04:00 9 60 0 0 204 0 1008,3
15 Illapel 05-05-2026 03:45 9,2 59 0 0 204 0 1008,3
14 Illapel 05-05-2026 03:30 9,4 59 0 0 204 0 1008,3
13 Illapel 05-05-2026 03:15 9,8 57 0 0 204 0 1008,3
12 Illapel 05-05-2026 03:00 10,3 56 0 0 204 0 1008,3
11 Illapel 05-05-2026 02:45 10,9 54 0 0 204 0 1008,3
10 Illapel 05-05-2026 02:30 11,6 53 0 0 183 0 1008,3
9 Illapel 05-05-2026 02:15 11,2 55 0 0 201 0 1008,3
8 Illapel 05-05-2026 02:00 11,8 53 0 0 207 0 1008,3
7 Illapel 05-05-2026 01:45 12 53 0 0 146 0 1008,3
6 Illapel 05-05-2026 01:30 11,9 54 0 0,9 126 0 1008,3
5 Illapel 05-05-2026 01:15 11,9 54 0 2,2 156 0 1008,3
4 Illapel 05-05-2026 00:45 11,1 58 0 0 208 0 1008,3
3 Illapel 05-05-2026 00:30 11,1 58 0 0 208 0 1008,3
2 Illapel 05-05-2026 00:15 11,3 58 0 0 212 0 1008,3
1 Illapel 05-05-2026 00:00 11 58 0 0 222 0 1008,3